| time (UTC) | temp F | wind direction | speed MPH | gust MPH | rain 1hr in | rain 24hr in | rain mn in | humidity % | barometer mb |
| 20260901161613 | 71 | 0 | 0.0 | 0.0 | 0.00 | 0.52 | 0.52 | 97 | 1005.7 |
| 20260901154600 | 70 | 0 | 0.0 | 0.0 | 0.00 | 0.52 | 0.52 | 97 | 1006.2 |
| 20260901153103 | 70 | 0 | 0.0 | 0.0 | 0.01 | 0.52 | 0.52 | 97 | 1006.5 |
| 20260901151602 | 70 | 0 | 0.0 | 0.0 | 0.01 | 0.52 | 0.52 | 97 | 1006.8 |
| 20260901150123 | 69 | 0 | 0.0 | 1.0 | 0.01 | 0.52 | 0.52 | 97 | 1006.7 |
| 20260901144558 | 69 | 0 | 0.0 | 1.0 | 0.02 | 0.52 | 0.52 | 97 | 1006.6 |
| 20260901143136 | 68 | 0 | 0.0 | 2.0 | 0.07 | 0.52 | 0.51 | 96 | 1006.3 |
| 20260901141608 | 68 | 0 | 0.0 | 0.0 | 0.08 | 0.52 | 0.51 | 97 | 1006.5 |
| 20260901140100 | 68 | 0 | 0.0 | 0.0 | 0.10 | 0.52 | 0.51 | 96 | 1006.7 |
| 20260901134600 | 68 | 0 | 0.0 | 0.0 | 0.10 | 0.51 | 0.50 | 96 | 1006.5 |
| 20260901133110 | 68 | 0 | 0.0 | 0.0 | 0.09 | 0.45 | 0.44 | 96 | 1006.8 |
| 20260901131605 | 68 | 0 | 0.0 | 0.0 | 0.13 | 0.44 | 0.43 | 96 | 1006.8 |
| 20260901124606 | 68 | 0 | 0.0 | 0.0 | 0.12 | 0.41 | 0.40 | 96 | 1007.1 |
| 20260901123106 | 68 | 0 | 0.0 | 0.0 | 0.07 | 0.36 | 0.35 | 96 | 1007.0 |
| 20260901121600 | 67 | 0 | 0.0 | 0.0 | 0.02 | 0.31 | 0.30 | 96 | 1007.3 |
| 20260901120121 | 68 | 0 | 0.0 | 0.0 | 0.01 | 0.29 | 0.28 | 96 | 1007.2 |
| 20260901114603 | 67 | 0 | 0.0 | 0.0 | 0.01 | 0.29 | 0.28 | 96 | 1006.9 |
| 20260901113103 | 67 | 0 | 0.0 | 0.0 | 0.01 | 0.29 | 0.28 | 96 | 1006.8 |
| 20260901111603 | 67 | 0 | 0.0 | 0.0 | 0.02 | 0.29 | 0.28 | 96 | 1006.8 |
| 20260901110110 | 67 | 0 | 0.0 | 0.0 | 0.01 | 0.28 | 0.27 | 96 | 1006.7 |
| 20260901104604 | 67 | 0 | 0.0 | 0.0 | 0.01 | 0.28 | 0.27 | 96 | 1006.8 |
| 20260901103058 | 67 | 0 | 0.0 | 0.0 | 0.01 | 0.28 | 0.27 | 96 | 1006.6 |
| 20260901101607 | 67 | 0 | 0.0 | 0.0 | 0.00 | 0.27 | 0.26 | 96 | 1006.8 |
| 20260901100057 | 67 | 0 | 0.0 | 0.0 | 0.00 | 0.27 | 0.26 | 96 | 1006.9 |
| 20260901094559 | 67 | 0 | 0.0 | 0.0 | 0.00 | 0.27 | 0.26 | 96 | 1006.7 |
| 20260901093108 | 67 | 0 | 0.0 | 0.0 | 0.00 | 0.27 | 0.26 | 96 | 1006.8 |
| 20260901091604 | 67 | 0 | 0.0 | 0.0 | 0.00 | 0.27 | 0.26 | 96 | 1006.9 |
| 20260901084606 | 67 | 0 | 0.0 | 0.0 | 0.00 | 0.27 | 0.26 | 96 | 1006.9 |
| 20260901083104 | 67 | 0 | 0.0 | 0.0 | 0.00 | 0.27 | 0.26 | 96 | 1007.0 |
| 20260901081602 | 67 | 0 | 0.0 | 0.0 | 0.00 | 0.27 | 0.26 | 96 | 1007.1 |
| 20260901080105 | 67 | 0 | 0.0 | 0.0 | 0.00 | 0.27 | 0.26 | 95 | 1006.9 |
| 20260901074601 | 67 | 0 | 0.0 | 0.0 | 0.00 | 0.27 | 0.26 | 95 | 1007.3 |
| 20260901073100 | 67 | 0 | 0.0 | 0.0 | 0.01 | 0.27 | 0.26 | 95 | 1007.5 |
| 20260901071628 | 67 | 0 | 0.0 | 1.0 | 0.01 | 0.27 | 0.26 | 95 | 1007.5 |
| 20260901070057 | 67 | 0 | 0.0 | 0.0 | 0.01 | 0.27 | 0.26 | 95 | 1007.5 |
| 20260901064608 | 67 | 0 | 0.0 | 0.0 | 0.01 | 0.27 | 0.26 | 95 | 1007.6 |
| 20260901063101 | 67 | 0 | 0.0 | 0.0 | 0.01 | 0.26 | 0.25 | 95 | 1007.6 |
| 20260901061604 | 67 | 0 | 0.0 | 0.0 | 0.01 | 0.26 | 0.25 | 95 | 1007.7 |
| 20260901060117 | 67 | 0 | 0.0 | 0.0 | 0.02 | 0.26 | 0.25 | 95 | 1007.8 |
| 20260901054557 | 67 | 0 | 0.0 | 0.0 | 0.06 | 0.26 | 0.25 | 95 | 1008.0 |
| 20260901053102 | 67 | 0 | 0.0 | 1.0 | 0.09 | 0.25 | 0.24 | 95 | 1008.0 |
| 20260901051554 | 67 | 0 | 0.0 | 0.0 | 0.16 | 0.25 | 0.24 | 95 | 1008.2 |
| 20260901050059 | 67 | 0 | 0.0 | 0.0 | 0.23 | 0.24 | 0.23 | 95 | 1008.2 |
| 20260901044604 | 67 | 0 | 0.0 | 0.0 | 0.20 | 0.20 | 0.19 | 94 | 1008.3 |
| 20260901043126 | 67 | 0 | 0.0 | 0.0 | 0.16 | 0.16 | 0.15 | 94 | 1008.2 |
| 20260901041601 | 67 | 0 | 0.0 | 0.0 | 0.09 | 0.09 | 0.08 | 94 | 1008.4 |
| 20260901040125 | 67 | 0 | 0.0 | 0.0 | 0.01 | 0.01 | 0.00 | 94 | 1008.3 |
| 20260901034607 | 67 | 0 | 0.0 | 0.0 | 0.00 | 0.00 | 0.00 | 94 | 1008.6 |
| 20260901033131 | 67 | 0 | 0.0 | 0.0 | 0.00 | 0.00 | 0.00 | 94 | 1008.5 |
| 20260901031607 | 67 | 0 | 0.0 | 0.0 | 0.00 | 0.00 | 0.00 | 93 | 1008.6 |
| 20260901030058 | 67 | 0 | 0.0 | 0.0 | 0.00 | 0.00 | 0.00 | 93 | 1008.6 |
| 20260901024557 | 67 | 0 | 0.0 | 0.0 | 0.00 | 0.00 | 0.00 | 93 | 1008.7 |
| 20260901023105 | 67 | 0 | 0.0 | 0.0 | 0.00 | 0.00 | 0.00 | 93 | 1008.8 |
| 20260901021556 | 67 | 0 | 0.0 | 0.0 | 0.00 | 0.00 | 0.00 | 93 | 1008.9 |
| 20260901020055 | 68 | 0 | 0.0 | 0.0 | 0.00 | 0.00 | 0.00 | 93 | 1009.0 |
| 20260901014605 | 68 | 0 | 0.0 | 0.0 | 0.00 | 0.00 | 0.00 | 93 | 1008.9 |
| 20260901013052 | 68 | 0 | 0.0 | 0.0 | 0.00 | 0.00 | 0.00 | 92 | 1008.9 |
| 20260901011553 | 68 | 0 | 0.0 | 0.0 | 0.00 | 0.00 | 0.00 | 92 | 1009.0 |
| 20260901004606 | 68 | 0 | 0.0 | 0.0 | 0.00 | 0.00 | 0.00 | 92 | 1009.0 |
| 20260901003102 | 68 | 0 | 0.0 | 0.0 | 0.00 | 0.00 | 0.00 | 92 | 1009.0 |
| 20260901001612 | 68 | 0 | 0.0 | 0.0 | 0.00 | 0.00 | 0.00 | 92 | 1009.0 |
| 20260901000057 | 68 | 0 | 0.0 | 0.0 | 0.00 | 0.00 | 0.00 | 91 | 1008.8 |
| 20260831234559 | 69 | 0 | 0.0 | 0.0 | 0.00 | 0.00 | 0.00 | 91 | 1008.8 |
| 20260831233058 | 69 | 0 | 0.0 | 0.0 | 0.00 | 0.00 | 0.00 | 91 | 1009.0 |
| 20260831231558 | 69 | 0 | 0.0 | 0.0 | 0.00 | 0.00 | 0.00 | 91 | 1009.0 |
| 20260831230110 | 69 | 0 | 0.0 | 0.0 | 0.00 | 0.00 | 0.00 | 91 | 1009.1 |
| 20260831224602 | 69 | 0 | 0.0 | 0.0 | 0.00 | 0.00 | 0.00 | 91 | 1009.4 |
| 20260831223058 | 69 | 0 | 0.0 | 0.0 | 0.00 | 0.00 | 0.00 | 91 | 1009.4 |
| 20260831221602 | 70 | 0 | 0.0 | 0.0 | 0.00 | 0.00 | 0.00 | 90 | 1009.4 |
| 20260831220057 | 70 | 0 | 0.0 | 0.0 | 0.00 | 0.00 | 0.00 | 90 | 1009.4 |
| 20260831214604 | 70 | 0 | 0.0 | 0.0 | 0.00 | 0.00 | 0.00 | 89 | 1009.4 |
| 20260831213055 | 70 | 0 | 0.0 | 0.0 | 0.00 | 0.00 | 0.00 | 89 | 1009.5 |
| 20260831211557 | 70 | 0 | 0.0 | 0.0 | 0.00 | 0.00 | 0.00 | 89 | 1009.5 |
| 20260831210125 | 70 | 0 | 0.0 | 0.0 | 0.00 | 0.00 | 0.00 | 88 | 1009.6 |
| 20260831204600 | 71 | 0 | 0.0 | 0.0 | 0.00 | 0.00 | 0.00 | 88 | 1009.7 |
| 20260831203105 | 71 | 0 | 0.0 | 0.0 | 0.00 | 0.00 | 0.00 | 87 | 1009.5 |
| 20260831201601 | 71 | 0 | 0.0 | 0.0 | 0.00 | 0.00 | 0.00 | 87 | 1009.7 |
| 20260831200057 | 71 | 0 | 0.0 | 0.0 | 0.00 | 0.00 | 0.00 | 85 | 1009.6 |
| 20260831194616 | 72 | 0 | 0.0 | 0.0 | 0.00 | 0.00 | 0.00 | 85 | 1009.7 |
| 20260831193058 | 72 | 0 | 0.0 | 0.0 | 0.00 | 0.00 | 0.00 | 85 | 1010.1 |
| 20260831191601 | 72 | 0 | 0.0 | 0.0 | 0.00 | 0.00 | 0.00 | 83 | 1010.1 |
| 20260831190109 | 73 | 0 | 0.0 | 0.0 | 0.00 | 0.00 | 0.00 | 82 | 1010.5 |
| 20260831184601 | 73 | 0 | 0.0 | 0.0 | 0.00 | 0.00 | 0.00 | 78 | 1010.4 |
| 20260831183105 | 73 | 0 | 0.0 | 0.0 | 0.00 | 0.00 | 0.00 | 77 | 1010.9 |
| 20260831181610 | 73 | 0 | 0.0 | 0.0 | 0.00 | 0.00 | 0.00 | 78 | 1010.8 |
| 20260831180111 | 73 | 0 | 0.0 | 0.0 | 0.00 | 0.00 | 0.00 | 78 | 1010.9 |
| 20260831174604 | 72 | 0 | 0.0 | 0.0 | 0.00 | 0.00 | 0.00 | 79 | 1011.3 |
| 20260831173130 | 72 | 0 | 0.0 | 0.0 | 0.00 | 0.00 | 0.00 | 80 | 1011.4 |
| 20260831171603 | 72 | 0 | 0.0 | 0.0 | 0.00 | 0.00 | 0.00 | 79 | 1011.5 |
| 20260831170121 | 72 | 0 | 0.0 | 0.0 | 0.00 | 0.00 | 0.00 | 79 | 1011.6 |
| 20260831164609 | 72 | 0 | 0.0 | 0.0 | 0.00 | 0.00 | 0.00 | 78 | 1011.5 |
| 20260831163058 | 73 | 0 | 0.0 | 0.0 | 0.00 | 0.00 | 0.00 | 78 | 1011.4 |